Weather observations for the past three days for
Butts Army Airfield (Fort Carson)
| Date | Time (mdt) | Wind (mph) | Vis. (mi.) | Weather | Sky Cond. | Temperature (ºF) | Relative Humidity | Wind Chill (°F) | Heat Index (°F) | Pressure | Precipitation (in) | ||||||
|---|---|---|---|---|---|---|---|---|---|---|---|---|---|---|---|---|---|
| Air | Dwpt | 6 hour | altimeter (in) | sea level (mb) | 1 hr | 3 hr | 6 hr | ||||||||||
| Max. | Min. | ||||||||||||||||
| 04 | 14:55 | SE 7 | 10.00 | Overcast | BKN100 BKN120 OVC160 | 71.1 | 19.4 | 14% | 29.76 | 1003.4 | |||||||
| 04 | 13:55 | Calm | 10.00 | Overcast | OVC110 | 70.3 | 15.3 | 12% | 29.78 | 1004.6 | |||||||
| 04 | 12:55 | E 5 | 10.00 | Mostly Cloudy | BKN120 | 71.1 | 15.8 | 12% | 29.8 | 1004.3 | |||||||
| 04 | 11:55 | NE 9 | 10.00 | Mostly Cloudy | BKN100 BKN130 | 71.1 | 19.4 | 72.3 | 47.8 | 14% | 29.82 | 1005.5 | |||||
| 04 | 10:55 | W 3 | 10.00 | A Few Clouds | FEW120 | 70.7 | 20.8 | 15% | 29.84 | 1005.2 | |||||||
| 04 | 09:55 | E 3 | 10.00 | Overcast | OVC120 | 65.3 | 23.2 | 20% | 29.85 | 1006.0 | |||||||
| 04 | 08:55 | N 7 | 10.00 | Partly Cloudy | SCT120 | 64.9 | 26.2 | 23% | 29.86 | 1006.4 | |||||||
| 04 | 07:55 | N 7 | 10.00 | Partly Cloudy | SCT160 | 56.8 | 27.3 | 32% | 29.86 | 1006.9 | |||||||
| 04 | 06:55 | N 9 | 10.00 | Overcast | OVC150 | 50 | 27.9 | 42% | 47 | 29.86 | 1007.4 | ||||||
| 04 | 05:55 | NW 7 | 10.00 | Partly Cloudy | SCT150 | 48.2 | 26.2 | 52.9 | 46.6 | 42% | 46 | 29.86 | 1007.4 | ||||
| 04 | 04:55 | SW 12 | 10.00 | Overcast | OVC130 | 49.1 | 26.4 | 41% | 45 | 29.87 | 1007.3 | ||||||
| 04 | 03:55 | NW 8 | 10.00 | A Few Clouds | FEW190 | 47.1 | 27.3 | 46% | 44 | 29.87 | 1007.3 | ||||||
| 04 | 02:55 | NW 7 | 10.00 | Fair | CLR | 49.1 | 27.5 | 43% | 47 | 29.87 | 1007.3 | ||||||
| 04 | 01:55 | N 6 | 10.00 | Mostly Cloudy | BKN140 | 49.8 | 27.7 | 42% | 48 | 29.89 | 1008.5 | ||||||
| 04 | 00:55 | N 5 | 10.00 | Overcast | BKN100 OVC140 | 52 | 28.9 | 41% | 29.9 | 1008.3 | |||||||
| 03 | 23:55 | N 6 | 10.00 | Partly Cloudy | SCT120 | 50.2 | 26.2 | 70.3 | 49.6 | 39% | 29.91 | 1009.2 | |||||
| 03 | 22:55 | N 5 | 10.00 | Overcast | OVC110 | 56.5 | 26.2 | 31% | 29.92 | 1008.5 | |||||||
| 03 | 21:55 | N 8 | 10.00 | Mostly Cloudy | BKN110 BKN130 | 57.4 | 26.2 | 30% | 29.93 | 1008.8 | |||||||
| 03 | 20:55 | Calm | 7.00 | Mostly Cloudy | BKN110 | 60.8 | 21.7 | 22% | 29.91 | 1008.1 | |||||||
| 03 | 19:55 | W 3 | 10.00 | Overcast | OVC130 | 63.5 | 21.7 | 20% | 29.9 | 1007.8 | |||||||
| 03 | 18:55 | N 3 | 10.00 | Mostly Cloudy | BKN140 | 69.3 | 21.2 | 16% | 29.88 | 1008.1 | |||||||
| 03 | 17:55 | NE 3 | 10.00 | Mostly Cloudy | FEW120 BKN160 | 69.1 | 17.8 | 75.6 | 67.6 | 14% | 29.89 | 1009.0 | |||||
| 03 | 16:55 | Calm | 10.00 | Overcast | FEW090 BKN120 OVC150 | 71.2 | 16 | 12% | 29.9 | 1008.8 | |||||||
| 03 | 15:55 | E 3 | 10.00 | Mostly Cloudy | BKN120 | 74.7 | 16.7 | 11% | 29.92 | 1009.0 | |||||||
| 03 | 14:55 | SE 9 | 10.00 | Mostly Cloudy | BKN120 | 71.6 | 14.4 | 11% | 29.96 | 1010.9 | |||||||
| 03 | 13:55 | Calm | 10.00 | Partly Cloudy | FEW110 SCT200 | 68.7 | 14 | 12% | 29.99 | 1013.0 | |||||||
| 03 | 12:55 | NE 7 | 10.00 | A Few Clouds | FEW190 FEW220 | 69.8 | 12.9 | 11% | 30.01 | 1013.2 | |||||||
| 03 | 11:55 | SW 3 | 10.00 | Fair | CLR | 69.6 | 16.5 | 70.7 | 45.1 | 13% | 30.04 | 1013.7 | |||||
| 03 | 10:55 | NE 6 | 10.00 | A Few Clouds | FEW190 FEW210 | 68.7 | 17.6 | 14% | 30.07 | 1014.3 | |||||||
| 03 | 09:55 | N 3 | 10.00 | Fair | CLR | 67.6 | 22.6 | 18% | 30.08 | 1014.6 | |||||||
| 03 | 08:55 | NE 3 | 10.00 | Fair | CLR | 62.6 | 24.3 | 23% | 30.09 | 1015.5 | |||||||
| 03 | 07:55 | N 7 | 10.00 | Fair | CLR | 60.6 | 27.3 | 28% | 30.09 | 1015.5 | |||||||
| 03 | 06:55 | NW 7 | 10.00 | Fair | CLR | 49.6 | 25 | 38% | 47 | 30.08 | 1015.7 | ||||||
| 03 | 05:55 | Calm | 10.00 | Fair | CLR | 45.9 | 23.5 | 51.6 | 40.8 | 41% | 30.06 | 1015.0 | |||||
| 03 | 04:55 | W 6 | 10.00 | Fair | CLR | 48 | 21 | 34% | 46 | 30.07 | 1015.3 | ||||||
| 03 | 03:55 | NW 7 | 10.00 | Fair | CLR | 45.1 | 22.3 | 40% | 42 | 30.07 | 1015.8 | ||||||
| 03 | 02:55 | NW 6 | 10.00 | Fair | CLR | 46 | 22.5 | 39% | 44 | 30.07 | 1015.3 | ||||||
| 03 | 01:55 | NW 8 | 10.00 | Fair | CLR | 43.5 | 25.2 | 48% | 39 | 30.08 | 1016.2 | ||||||
| 03 | 00:55 | NW 7 | 10.00 | Fair | CLR | 44.4 | 22.1 | 41% | 41 | 30.1 | 1017.4 | ||||||
| 02 | 23:55 | W 6 | 10.00 | Fair | CLR | 49.6 | 17.1 | 66.7 | 49.3 | 27% | 48 | 30.11 | 1016.7 | ||||
| 02 | 22:55 | SW 7 | 10.00 | Fair | CLR | 54.3 | 15.3 | 21% | 30.12 | 1017.1 | |||||||
| 02 | 21:55 | SW 9 | 10.00 | Fair | CLR | 54 | 16 | 22% | 30.12 | 1017.6 | |||||||
| 02 | 20:55 | SW 8 | 8.00 | Fair | CLR | 55.2 | 19.9 | 25% | 30.11 | 1017.2 | |||||||
| 02 | 19:55 | S 9 | 10.00 | Fair | CLR | 55.9 | 18.7 | 23% | 30.09 | 1017.6 | |||||||
| 02 | 18:55 | SE 12 | 10.00 | Fair | CLR | 64.6 | 15.8 | 15% | 30.09 | 1017.6 | |||||||
| 02 | 17:55 | SE 10 | 10.00 | Fair | CLR | 66.7 | 14.4 | 68.7 | 63.5 | 13% | 30.1 | 1018.4 | |||||
| 02 | 16:55 | SE 13 | 10.00 | Fair | CLR | 67.5 | 16.5 | 14% | 30.11 | 1018.3 | |||||||
| 02 | 15:55 | SE 13 G 18 | 10.00 | Fair | CLR | 67.5 | 16.5 | 14% | 30.12 | 1018.6 | |||||||
| 02 | 14:55 | SE 9 | 10.00 | Fair | CLR | 66.4 | 17.2 | 15% | 30.15 | 1019.7 | |||||||
| 02 | 13:55 | S 14 G 18 | 10.00 | Fair | CLR | 66.9 | 20.7 | 17% | 30.16 | 1020.0 | |||||||
| 02 | 12:55 | S 9 G 18 | 10.00 | Fair | CLR | 64.4 | 21.2 | 19% | 30.18 | 1020.7 | |||||||
| 02 | 11:55 | SE 13 G 16 | 10.00 | Fair | CLR | 65.8 | 22.5 | 65.8 | 35.2 | 19% | 30.21 | 1021.8 | |||||
| 02 | 10:55 | SE 6 | 10.00 | Fair | CLR | 59 | 16.7 | 19% | 30.22 | 1022.7 | |||||||
| 02 | 09:55 | S 5 | 10.00 | Fair | CLR | 57.7 | 15.8 | 19% | 30.22 | 1022.2 | |||||||
| 02 | 08:55 | Calm | 10.00 | Fair | CLR | 54 | 18.9 | 25% | 30.23 | 1023.0 | |||||||
| 02 | 07:55 | N 7 | 10.00 | Fair | CLR | 46.9 | 26.2 | 45% | 44 | 30.22 | 1022.7 | ||||||
| 02 | 06:55 | NW 8 | 10.00 | Fair | CLR | 38.8 | 23.5 | 54% | 34 | 30.21 | 1023.3 | ||||||
| 02 | 05:55 | N 8 | 10.00 | Fair | CLR | 35.2 | 23.5 | 40.8 | 33.6 | 62% | 29 | 30.2 | 1023.5 | ||||
| 02 | 04:55 | NW 8 | 10.00 | Fair | CLR | 34.5 | 23.2 | 63% | 29 | 30.2 | 1023.5 | ||||||
| 02 | 03:55 | NW 8 | 10.00 | Fair | CLR | 35.6 | 23 | 60% | 30 | 30.19 | 1023.1 | ||||||
| 02 | 02:55 | N 7 | 10.00 | Fair | CLR | 37.9 | 24.4 | 58% | 33 | 30.19 | 1023.1 | ||||||
| 02 | 01:55 | NW 7 | 10.00 | Fair | CLR | 37.4 | 23.9 | 58% | 33 | 30.19 | 1023.1 | ||||||
| 02 | 00:55 | NW 8 | 10.00 | Fair | CLR | 39.7 | 25.7 | 57% | 35 | 30.2 | 1023.5 | ||||||
| 01 | 23:55 | NW 8 | 10.00 | Fair | CLR | 39 | 27.5 | 56.1 | 37.6 | 63% | 34 | 30.19 | 1023.1 | ||||
| 01 | 22:55 | N 6 | 10.00 | Fair | CLR | 42.1 | 28.4 | 58% | 39 | 30.18 | 1022.3 | ||||||
| 01 | 21:55 | W 8 | 10.00 | Fair | CLR | 46.9 | 27.7 | 47% | 44 | 30.18 | 1022.3 | ||||||
| 01 | 20:55 | W 7 | 10.00 | Fair | CLR | 47.5 | 27.7 | 46% | 45 | 30.16 | 1021.6 | ||||||
| 01 | 19:55 | W 5 | 10.00 | Fair | CLR | 52.5 | 27 | 37% | 30.14 | 1020.9 | |||||||
| 01 | 18:55 | Calm | 10.00 | Overcast | BKN075 OVC090 | 54.5 | 24.4 | 31% | 30.13 | 1021.0 | |||||||
| 01 | 17:55 | Calm | 10.00 | Partly Cloudy | SCT075 | 52.9 | 28.6 | 56.1 | 49.5 | 39% | 30.12 | 1020.7 | |||||
| 01 | 16:55 | S 8 | 10.00 | Mostly Cloudy | BKN070 | 55.4 | 26.1 | 32% | 30.12 | 1020.2 | |||||||
| 01 | 15:55 | SW 5 | 10.00 | A Few Clouds | FEW070 | 54.9 | 27 | 34% | 30.13 | 1020.5 | |||||||
| Date | Time (mdt) | Wind (mph) | Vis. (mi.) | Weather | Sky Cond. | Air | Dwpt | Max. | Min. | Relative Humidity | Wind Chill (°F) | Heat Index (°F) | altimeter (in) | sea level (mb) | 1 hr | 3 hr | 6 hr |
| 6 hour | |||||||||||||||||
| Temperature (ºF) | Pressure | Precipitation (in) | |||||||||||||||